Skip Page Navigation
NASA JPL Caltech
NASA Logo - Jet Propulsion Laboratory + View the NASA Portal
+ Center for Near-Earth Object Studies
JPL Home Earth Solar System Stars & Galaxies Technology
JPL Solar System Dynamics
BODIES ORBITS EPHEMERIDES TOOLS PHYSICAL DATA DISCOVERY FAQ SITE MAP
IMPORTANT: The SSD Announcement email list is now available. Major changes are coming in the near future, including possible hostname and/or URL changes. To be notified of such changes, subscribe to this email list.

Please visit this page for more details.


JPL Small-Body Database Browser
Search: [ help ]  
13753 Jennivirta (1998 SY59)
Classification: Main-belt Asteroid          SPK-ID: 2013753
Ephemeris | Orbit Diagram | Orbital Elements | Mission Design | Physical Parameters | Discovery Circumstances | Close-Approach Data ]

[ hide orbit diagram ]

For accurate long-term ephemerides, please instead use our Horizons system.This orbit viewer was implemented using two-body methods, and hence should not be used for determining accurate long-term trajectories (over several years or decades) or planetary encounter circumstances.


[ revert to old Java-based viewer ]

Orbital Elements at Epoch 2458600.5 (2019-Apr-27.0) TDB
Reference: JPL 23 (heliocentric ecliptic J2000)
 Element Value Uncertainty (1-sigma)   Units 
e .1362711980988894 3.3482e-08  
a 3.17454695723903 2.3994e-08 au
q 2.741947639954883 1.0658e-07 au
i 6.115927591370525 4.4485e-06 deg
node 133.462250418504 3.7192e-05 deg
peri 289.1945956546481 4.0907e-05 deg
M 196.3077692164278 1.6721e-05 deg
tp 2459539.891500774927
(2021-Nov-21.39150077)
9.7488e-05 TDB
period 2065.955962968724
5.66
2.3423e-05
6.413e-08
d
yr
n .1742534722195576 1.9756e-09 deg/d
Q 3.607146274523176 2.7264e-08 au
  Orbit Determination Parameters
   # obs. used (total)      1021  
   data-arc span      10752 days (29.44 yr)  
   first obs. used      1989-02-02  
   last obs. used      2018-07-12  
   planetary ephem.      DE431  
   SB-pert. ephem.      SB431-N16  
   condition code      0  
   norm. resid. RMS      .57179  
   source      ORB  
   producer      Otto Matic  
   solution date      2019-Jul-12 19:23:45  

Additional Information
 Earth MOID = 1.7627 au 
 Jupiter MOID = 1.72898 au 
 T_jup = 3.178 
[ show covariance matrix ]

Ephemeris | Orbit Diagram | Orbital Elements | Mission Design | Physical Parameters | Discovery Circumstances | Close-Approach Data ]

Physical Parameter Table
Parameter Symbol Value Units Sigma Reference Notes
absolute magnitude H 13.9   n/a MPO416859  

13753 Jennivirta           Discovered 1998 Sept. 17 by the Lowell Observatory Near-Earth Object Search at the Anderson Mesa Station.
Jenni V. Virtanen (b. 1975), of the University of Helsinki, specializes in orbit determination. She has recently developed an initial orbit determination method, termed statistical ranging, suitable for use on poorly observed or short-arc objects.
NOTE: some special characters may not display properly (any characters within {} are an attempt to place the proper accent above a character)
Reference: 20020724/MPCPages.arcLast Updated: 2003-10-02

[ show close-approach data ]
Alternate Designations
 1998 SY59 = 1989 CU5 
Ephemeris | Orbit Diagram | Orbital Elements | Mission Design | Physical Parameters | Discovery Circumstances | Close-Approach Data ]
ABOUT SSD CREDITS/AWARDS PRIVACY/COPYRIGHT GLOSSARY LINKS
FirstGov 2019-Dec-13 11:09 UT
(server date/time)  
NASA Home Page
Site Manager:   Ryan S. Park
Webmaster  Alan B. Chamberlin